DECAYED

ELECTRON R/B, 68410 (Decayed)

Orbit data source: Space-Track

ELECTRON R/B, 68410 was space debris in LEO originally from a launch on Sat, 28 Mar 2026 UTC launched from the Rocket Lab Launch Complex (RLLC). Debris objects in space refer to the collection of defunct objects orbiting the Earth. Examples of debris include non-operational satellites, rocket bodies, and fragments generated from explosions, collisions, or faulty payload assembly.

Not visible in the next 10 days
Identifier
68410, 2026-065C
Orbit
Decayed
Country
Flag of USUS
Related business
Manufacturer
Rocket Lab
Mission
Decayed spacecraft
Bus & Motor
ELECTRON ST2, Unknown motor
Mass
250 kg wet, ~250 kg dry
Launch date (UTC)
2026-03-28 (2 weeks ago)
Launch vehicle
Unknown
Launch site
Rocket Lab Launch Complex (RLLC)
Object type
Payload
Rocket body
Debris
Shape & HBR
Unknown
Radar Cross Section
RCS unknown

Expand to show TLE details & history
Last TLE update: 1 week ago

TLE from 1 week ago
0 ELECTRON R/B
1 68410U 26065C   26093.36915547  .13281109  16595-5  48423-3 0  9998
2 68410  97.3609 336.1707 0069854 198.0172 161.8648 16.33068968   882
Epoch: 2026-04-03T08:51Z
TLE epoch observation values (Epoch: 2026-04-03T08:51:35.032Z)
Latitude
-0.00003°
Longitude
11.57046°
Altitude
231.154 km
Speed
7.742 km/s
True Right ascension
22h 24m 40s
True Declination
0° 00' 00"
Sunlit
Object was in daylight at epoch
Visualization orbit readout
Latitude
Unknown
Longitude
Unknown
Altitude
Unknown
Speed
Unknown
Apparent Right ascension
Unknown
Apparent Declination
Unknown
Sunlit
N/A
Visualization observer readout
Local Sidereal Time
19:09:54
Azimuth
Unknown
Elevation
Unknown
Doppler factor
Unknown
Orbital elements
Apogee altitude
226.939 km
Perigee altitude
135.301 km
Semi-major axis
6,559.257 km
Eccentricity
0.00699
Inclination
97.3609°
RAAN
336.1707°
Arg. of periapsis
198.0172°
True anomaly
162.1119°
Mean anomaly
161.8648°
Eccentric anomaly
161.98856°
Mean motion
4.08565 °/min
Orbital period
88.11 mins
BSTAR
0.00048423
Loading maneuver chart data...
Computing Atmospheric mass density...
Loading historical data...
Loading historical data...
Loading historical data...
Loading historical data...
Loading historical data...
Loading historical data...
Loading historical data...
Other satellites on launch #65 in the year 2026 (2026-03-28 UTC)

Documentation

Showing up to 5 results
|